Location: Pittman
(37.9557°N, 80.9209°W)
Time: 00:44:01
(UTC+00:00)

HTV-X1 - Visible Passes

Search period start: 18 May 2026 00:00
Search period end: 28 May 2026 00:00
Orbit: 372 x 382 km, 51.6° (Epoch: 17 May)

Date Brightness Start Highest point End Pass type
(mag) Time Alt. Az. Time Alt. Az. Time Alt. Az.
18 May ? 03:18:49 10° N 03:19:46 11° NNE 03:19:51 11° NNE visible
19 May ? 03:52:30 10° NNW 03:53:04 13° NNW 03:53:04 13° NNW visible
20 May ? 02:52:05 10° NNW 02:53:50 14° NNE 02:54:12 14° NNE visible
21 May ? 03:26:07 10° NW 03:27:24 21° NNW 03:27:24 21° NNW visible
22 May ? 02:25:29 10° NNW 02:27:47 19° NNE 02:28:32 17° NE visible
23 May ? 01:25:12 10° N 01:26:24 12° NNE 01:27:36 10° NE visible
23 May ? 02:59:43 10° NW 03:01:46 36° NNW 03:01:46 36° NNW visible
24 May ? 01:58:54 10° NNW 02:01:35 26° NNE 02:02:56 19° ENE visible
24 May ? 03:34:45 10° WNW 03:35:01 12° WNW 03:35:01 12° WNW visible
25 May ? 02:33:20 10° NW 02:36:12 70° W 02:36:12 70° W visible
26 May ? 01:32:20 10° NW 01:35:16 40° NE 01:37:25 16° ESE visible
26 May ? 03:08:55 10° W 03:09:30 12° W 03:09:30 12° W visible
27 May ? 02:07:00 10° WNW 02:09:55 41° SW 02:10:45 32° S visible
